| time (UTC) | temp C | wind direction | speed KPH | gust KPH | rain 1hr cm | rain 24hr cm | rain mn cm | humidity % | barometer mb |
| 20260503050022 | 0 | 260 | 0.0 | 0.0 | 0.00 | 0.00 | 0.00 | 80 | 1016.7 |
| 20260503045509 | 1 | 260 | 0.0 | 0.0 | 0.00 | 0.00 | 0.00 | 80 | 1016.8 |
| 20260503045013 | 1 | 260 | 0.0 | 0.0 | 0.00 | 0.00 | 0.00 | 79 | 1016.9 |
| 20260503044536 | 1 | 260 | 0.0 | 0.0 | 0.00 | 0.00 | 0.00 | 79 | 1016.9 |
| 20260503044012 | 1 | 260 | 0.0 | 0.0 | 0.00 | 0.00 | 0.00 | 79 | 1016.9 |
| 20260503043505 | 1 | 260 | 0.0 | 0.0 | 0.00 | 0.00 | 0.00 | 78 | 1016.9 |
| 20260503043023 | 1 | 260 | 0.0 | 0.0 | 0.00 | 0.00 | 0.00 | 78 | 1016.9 |
| 20260503042506 | 1 | 260 | 0.0 | 0.0 | 0.00 | 0.00 | 0.00 | 77 | 1017.0 |
| 20260503042009 | 1 | 260 | 0.0 | 0.0 | 0.00 | 0.00 | 0.00 | 76 | 1017.0 |
| 20260503041525 | 1 | 260 | 0.0 | 0.0 | 0.00 | 0.00 | 0.00 | 75 | 1016.9 |
| 20260503041006 | 1 | 260 | 0.0 | 0.0 | 0.00 | 0.00 | 0.00 | 75 | 1016.9 |
| 20260503040509 | 1 | 260 | 0.0 | 0.0 | 0.00 | 0.00 | 0.00 | 75 | 1017.0 |
| 20260503040026 | 1 | 260 | 0.0 | 0.0 | 0.00 | 0.00 | 0.00 | 75 | 1017.0 |
| 20260503035508 | 1 | 260 | 0.0 | 0.0 | 0.00 | 0.00 | 0.00 | 74 | 1017.0 |
| 20260503035011 | 1 | 260 | 0.0 | 0.0 | 0.00 | 0.00 | 0.00 | 75 | 1017.0 |
| 20260503034524 | 1 | 260 | 0.0 | 0.0 | 0.00 | 0.00 | 0.00 | 74 | 1017.1 |
| 20260503034010 | 2 | 260 | 0.0 | 0.0 | 0.00 | 0.00 | 0.00 | 73 | 1017.1 |
| 20260503033512 | 2 | 260 | 0.0 | 0.0 | 0.00 | 0.00 | 0.00 | 73 | 1017.1 |
| 20260503033023 | 2 | 260 | 0.0 | 0.0 | 0.00 | 0.00 | 0.00 | 72 | 1017.1 |
| 20260503032509 | 2 | 260 | 0.0 | 0.0 | 0.00 | 0.00 | 0.00 | 71 | 1017.1 |
| 20260503032009 | 2 | 260 | 0.0 | 0.0 | 0.00 | 0.00 | 0.00 | 71 | 1017.1 |
| 20260503031525 | 2 | 260 | 0.0 | 0.0 | 0.00 | 0.00 | 0.00 | 70 | 1017.1 |
| 20260503031006 | 2 | 260 | 0.0 | 0.0 | 0.00 | 0.00 | 0.00 | 71 | 1017.1 |
| 20260503030511 | 2 | 260 | 0.0 | 0.0 | 0.00 | 0.00 | 0.00 | 71 | 1017.2 |
| 20260503030028 | 2 | 260 | 0.0 | 0.0 | 0.00 | 0.00 | 0.00 | 70 | 1017.2 |
| 20260503025509 | 2 | 260 | 0.0 | 0.0 | 0.00 | 0.00 | 0.00 | 69 | 1017.2 |
| 20260503025008 | 2 | 260 | 0.0 | 0.0 | 0.00 | 0.00 | 0.00 | 69 | 1017.2 |
| 20260503024526 | 2 | 260 | 0.0 | 0.0 | 0.00 | 0.00 | 0.00 | 68 | 1017.3 |
| 20260503024012 | 2 | 260 | 0.0 | 0.0 | 0.00 | 0.00 | 0.00 | 67 | 1017.3 |
| 20260503023510 | 2 | 260 | 0.0 | 0.0 | 0.00 | 0.00 | 0.00 | 67 | 1017.3 |
| 20260503023030 | 2 | 260 | 0.0 | 0.0 | 0.00 | 0.00 | 0.00 | 66 | 1017.3 |
| 20260503022509 | 2 | 260 | 0.0 | 0.0 | 0.00 | 0.00 | 0.00 | 65 | 1017.4 |
| 20260503022015 | 2 | 260 | 0.0 | 0.0 | 0.00 | 0.00 | 0.00 | 65 | 1017.3 |
| 20260503021526 | 2 | 260 | 0.0 | 0.0 | 0.00 | 0.00 | 0.00 | 65 | 1017.3 |
| 20260503021009 | 3 | 260 | 0.0 | 0.0 | 0.00 | 0.00 | 0.00 | 65 | 1017.3 |
| 20260503020509 | 3 | 260 | 0.0 | 0.0 | 0.00 | 0.00 | 0.00 | 64 | 1017.3 |
| 20260503020028 | 3 | 260 | 0.0 | 0.0 | 0.00 | 0.00 | 0.00 | 63 | 1017.4 |
| 20260503015507 | 3 | 260 | 0.0 | 0.0 | 0.00 | 0.00 | 0.00 | 61 | 1017.3 |
| 20260503015005 | 3 | 260 | 0.0 | 0.0 | 0.00 | 0.00 | 0.00 | 61 | 1017.3 |
| 20260503014522 | 3 | 260 | 0.0 | 0.0 | 0.00 | 0.00 | 0.00 | 59 | 1017.2 |
| 20260503014008 | 3 | 260 | 0.0 | 0.0 | 0.00 | 0.00 | 0.00 | 59 | 1017.2 |
| 20260503013513 | 4 | 260 | 0.0 | 0.0 | 0.00 | 0.00 | 0.00 | 58 | 1017.2 |
| 20260503013033 | 4 | 260 | 0.0 | 0.0 | 0.00 | 0.00 | 0.00 | 57 | 1017.1 |
| 20260503012510 | 4 | 260 | 0.0 | 0.0 | 0.00 | 0.00 | 0.00 | 56 | 1017.0 |
| 20260503012014 | 5 | 260 | 0.0 | 1.6 | 0.00 | 0.00 | 0.00 | 53 | 1016.9 |
| 20260503011529 | 5 | 260 | 0.0 | 1.6 | 0.00 | 0.00 | 0.00 | 53 | 1017.0 |
| 20260503011011 | 5 | 260 | 0.0 | 1.6 | 0.00 | 0.00 | 0.00 | 52 | 1017.0 |
| 20260503010510 | 5 | 260 | 0.0 | 1.6 | 0.00 | 0.00 | 0.00 | 50 | 1017.0 |
| 20260503010028 | 6 | 260 | 0.0 | 1.6 | 0.00 | 0.00 | 0.00 | 48 | 1016.9 |
| 20260503005509 | 6 | 260 | 0.0 | 4.8 | 0.00 | 0.00 | 0.00 | 47 | 1016.9 |
| 20260503005006 | 6 | 260 | 0.0 | 4.8 | 0.00 | 0.00 | 0.00 | 46 | 1016.9 |
| 20260503004526 | 6 | 298 | 1.6 | 6.4 | 0.00 | 0.00 | 0.00 | 45 | 1017.0 |
| 20260503004009 | 6 | 245 | 3.2 | 6.4 | 0.00 | 0.00 | 0.00 | 44 | 1017.0 |
| 20260503003507 | 7 | 276 | 3.2 | 9.7 | 0.00 | 0.00 | 0.00 | 44 | 1017.0 |
| 20260503003025 | 7 | 257 | 3.2 | 9.7 | 0.00 | 0.00 | 0.00 | 44 | 1016.9 |
| 20260503002510 | 7 | 280 | 3.2 | 12.9 | 0.00 | 0.00 | 0.00 | 43 | 1016.9 |
| 20260503002012 | 7 | 292 | 4.8 | 14.5 | 0.00 | 0.00 | 0.00 | 42 | 1016.9 |
| 20260503001526 | 7 | 290 | 6.4 | 14.5 | 0.00 | 0.00 | 0.00 | 41 | 1016.9 |
| 20260503001014 | 7 | 279 | 3.2 | 11.3 | 0.00 | 0.00 | 0.00 | 42 | 1016.9 |
| 20260503000509 | 8 | 274 | 4.8 | 12.9 | 0.00 | 0.00 | 0.00 | 42 | 1016.8 |
| 20260503000036 | 8 | 279 | 6.4 | 14.5 | 0.00 | 0.00 | 0.00 | 42 | 1016.8 |
| 20260502235507 | 8 | 300 | 4.8 | 19.3 | 0.00 | 0.00 | 0.00 | 41 | 1016.8 |
| 20260502235006 | 8 | 285 | 9.7 | 19.3 | 0.00 | 0.00 | 0.00 | 41 | 1016.9 |
| 20260502234522 | 8 | 295 | 12.9 | 19.3 | 0.00 | 0.00 | 0.00 | 41 | 1016.9 |
| 20260502234009 | 8 | 264 | 3.2 | 17.7 | 0.00 | 0.00 | 0.00 | 41 | 1016.8 |
| 20260502233507 | 8 | 248 | 8.0 | 17.7 | 0.00 | 0.00 | 0.00 | 41 | 1016.8 |
| 20260502233026 | 8 | 276 | 8.0 | 20.9 | 0.00 | 0.00 | 0.00 | 41 | 1016.9 |
| 20260502232509 | 8 | 290 | 9.7 | 20.9 | 0.00 | 0.00 | 0.00 | 43 | 1016.9 |
| 20260502232011 | 8 | 296 | 11.3 | 19.3 | 0.00 | 0.00 | 0.00 | 40 | 1016.8 |
| 20260502231530 | 8 | 273 | 9.7 | 19.3 | 0.00 | 0.00 | 0.00 | 41 | 1016.8 |
| 20260502231009 | 8 | 223 | 11.3 | 24.1 | 0.00 | 0.00 | 0.00 | 41 | 1016.8 |
| 20260502230511 | 9 | 298 | 14.5 | 24.1 | 0.00 | 0.00 | 0.00 | 40 | 1016.8 |
| 20260502230029 | 9 | 296 | 4.8 | 20.9 | 0.00 | 0.00 | 0.00 | 41 | 1016.9 |
| 20260502225511 | 9 | 310 | 8.0 | 20.9 | 0.00 | 0.00 | 0.00 | 40 | 1016.8 |
| 20260502225010 | 9 | 259 | 11.3 | 20.9 | 0.00 | 0.00 | 0.00 | 42 | 1016.8 |
| 20260502224528 | 9 | 240 | 11.3 | 22.5 | 0.00 | 0.00 | 0.00 | 41 | 1016.9 |
| 20260502224007 | 9 | 312 | 11.3 | 24.1 | 0.00 | 0.00 | 0.00 | 42 | 1016.9 |
| 20260502223511 | 9 | 269 | 14.5 | 24.1 | 0.00 | 0.00 | 0.00 | 41 | 1016.8 |
| 20260502223021 | 8 | 315 | 11.3 | 19.3 | 0.00 | 0.00 | 0.00 | 41 | 1016.8 |
| 20260502222507 | 8 | 296 | 8.0 | 17.7 | 0.00 | 0.00 | 0.00 | 41 | 1016.9 |
| 20260502222012 | 8 | 260 | 9.7 | 20.9 | 0.00 | 0.00 | 0.00 | 43 | 1016.9 |
| 20260502221529 | 8 | 284 | 8.0 | 20.9 | 0.00 | 0.00 | 0.00 | 42 | 1017.0 |
| 20260502221010 | 9 | 228 | 11.3 | 19.3 | 0.00 | 0.00 | 0.00 | 41 | 1016.9 |
| 20260502220512 | 9 | 316 | 8.0 | 20.9 | 0.00 | 0.00 | 0.00 | 42 | 1016.9 |
| 20260502220028 | 9 | 254 | 11.3 | 20.9 | 0.00 | 0.00 | 0.00 | 42 | 1016.9 |
| 20260502215512 | 9 | 270 | 9.7 | 24.1 | 0.00 | 0.00 | 0.00 | 40 | 1016.9 |
| 20260502215005 | 9 | 294 | 14.5 | 24.1 | 0.00 | 0.00 | 0.00 | 40 | 1016.9 |
| 20260502214513 | 8 | 275 | 9.7 | 22.5 | 0.00 | 0.00 | 0.00 | 41 | 1016.8 |
| 20260502214012 | 9 | 244 | 12.9 | 20.9 | 0.00 | 0.00 | 0.00 | 41 | 1016.8 |
| 20260502213508 | 9 | 327 | 3.2 | 19.3 | 0.00 | 0.00 | 0.00 | 45 | 1016.8 |
| 20260502213023 | 8 | 269 | 11.3 | 20.9 | 0.00 | 0.00 | 0.00 | 42 | 1016.8 |
| 20260502212506 | 9 | 269 | 12.9 | 22.5 | 0.00 | 0.00 | 0.00 | 44 | 1016.8 |
| 20260502212009 | 8 | 297 | 9.7 | 22.5 | 0.00 | 0.00 | 0.00 | 41 | 1016.8 |
| 20260502211525 | 9 | 271 | 9.7 | 20.9 | 0.00 | 0.00 | 0.00 | 41 | 1016.9 |
| 20260502211003 | 8 | 217 | 9.7 | 20.9 | 0.00 | 0.00 | 0.00 | 42 | 1016.9 |
| 20260502210501 | 8 | 273 | 8.0 | 24.1 | 0.00 | 0.00 | 0.00 | 43 | 1017.0 |
| 20260502210010 | 9 | 294 | 16.1 | 24.1 | 0.00 | 0.00 | 0.00 | 43 | 1017.0 |
| 20260502205506 | 8 | 322 | 11.3 | 20.9 | 0.00 | 0.00 | 0.00 | 45 | 1017.0 |
| 20260502205007 | 8 | 248 | 8.0 | 16.1 | 0.00 | 0.00 | 0.00 | 45 | 1017.1 |
| 20260502204519 | 8 | 316 | 4.8 | 14.5 | 0.00 | 0.00 | 0.00 | 45 | 1017.1 |
| 20260502204006 | 8 | 229 | 8.0 | 16.1 | 0.00 | 0.00 | 0.00 | 47 | 1017.2 |
| 20260502203506 | 8 | 285 | 6.4 | 20.9 | 0.00 | 0.00 | 0.00 | 47 | 1017.3 |
| 20260502203020 | 8 | 232 | 11.3 | 24.1 | 0.00 | 0.00 | 0.00 | 46 | 1017.4 |
| 20260502202505 | 8 | 282 | 16.1 | 24.1 | 0.00 | 0.00 | 0.00 | 45 | 1017.4 |
| 20260502202013 | 8 | 292 | 12.9 | 22.5 | 0.00 | 0.00 | 0.00 | 45 | 1017.5 |
| 20260502201527 | 8 | 302 | 6.4 | 22.5 | 0.00 | 0.00 | 0.00 | 49 | 1017.6 |
| 20260502201011 | 8 | 267 | 12.9 | 22.5 | 0.00 | 0.00 | 0.00 | 47 | 1017.6 |
| 20260502200512 | 8 | 266 | 8.0 | 20.9 | 0.00 | 0.00 | 0.00 | 47 | 1017.7 |
| 20260502200024 | 8 | 316 | 12.9 | 20.9 | 0.00 | 0.00 | 0.00 | 49 | 1017.7 |
| 20260502195501 | 7 | 327 | 8.0 | 20.9 | 0.00 | 0.00 | 0.00 | 48 | 1017.7 |
| 20260502195003 | 7 | 304 | 9.7 | 20.9 | 0.00 | 0.00 | 0.00 | 47 | 1017.8 |
| 20260502194509 | 8 | 315 | 14.5 | 24.1 | 0.00 | 0.00 | 0.00 | 46 | 1017.8 |
| 20260502194003 | 7 | 266 | 3.2 | 24.1 | 0.00 | 0.00 | 0.00 | 48 | 1017.8 |
| 20260502193507 | 8 | 235 | 11.3 | 22.5 | 0.00 | 0.00 | 0.00 | 47 | 1017.8 |
| 20260502193020 | 8 | 302 | 14.5 | 32.2 | 0.00 | 0.00 | 0.00 | 44 | 1017.8 |
| 20260502192505 | 8 | 315 | 14.5 | 32.2 | 0.00 | 0.00 | 0.00 | 44 | 1017.8 |
| 20260502192009 | 8 | 292 | 8.0 | 24.1 | 0.00 | 0.00 | 0.00 | 48 | 1017.9 |
| 20260502191521 | 7 | 350 | 8.0 | 20.9 | 0.00 | 0.00 | 0.00 | 47 | 1017.9 |
| 20260502191012 | 7 | 317 | 6.4 | 20.9 | 0.00 | 0.00 | 0.00 | 47 | 1018.1 |
| 20260502190513 | 7 | 282 | 12.9 | 19.3 | 0.00 | 0.00 | 0.00 | 46 | 1018.1 |
| 20260502190030 | 7 | 270 | 9.7 | 17.7 | 0.00 | 0.00 | 0.00 | 48 | 1018.1 |
| 20260502185509 | 7 | 287 | 8.0 | 17.7 | 0.00 | 0.00 | 0.00 | 50 | 1018.2 |
| 20260502185010 | 7 | 277 | 9.7 | 24.1 | 0.00 | 0.00 | 0.00 | 46 | 1018.1 |
| 20260502184527 | 7 | 286 | 8.0 | 24.1 | 0.00 | 0.00 | 0.00 | 46 | 1018.2 |
| 20260502184005 | 7 | 231 | 8.0 | 20.9 | 0.00 | 0.00 | 0.00 | 48 | 1018.2 |
| 20260502183506 | 7 | 264 | 8.0 | 20.9 | 0.00 | 0.00 | 0.00 | 45 | 1018.2 |
| 20260502183018 | 7 | 298 | 11.3 | 20.9 | 0.00 | 0.00 | 0.00 | 48 | 1018.2 |
| 20260502182507 | 7 | 323 | 9.7 | 20.9 | 0.00 | 0.00 | 0.00 | 45 | 1018.3 |
| 20260502182006 | 7 | 279 | 8.0 | 20.9 | 0.00 | 0.00 | 0.00 | 45 | 1018.3 |
| 20260502181518 | 7 | 360 | 8.0 | 20.9 | 0.00 | 0.00 | 0.00 | 45 | 1018.4 |
| 20260502181007 | 7 | 328 | 8.0 | 20.9 | 0.00 | 0.00 | 0.00 | 48 | 1018.4 |
| 20260502180507 | 7 | 311 | 9.7 | 20.9 | 0.00 | 0.00 | 0.00 | 46 | 1018.5 |
| 20260502170510 | 6 | 25 | 3.2 | 20.9 | 0.00 | 0.00 | 0.00 | 50 | 1018.9 |
| 20260502164009 | 7 | 333 | 9.7 | 16.1 | 0.00 | 0.00 | 0.00 | 49 | 1019.2 |
| 20260502163506 | 7 | 68 | 3.2 | 16.1 | 0.00 | 0.00 | 0.00 | 52 | 1019.1 |
| 20260502163036 | 6 | 351 | 8.0 | 16.1 | 0.00 | 0.00 | 0.00 | 52 | 1019.2 |
| 20260502162510 | 6 | 346 | 6.4 | 17.7 | 0.00 | 0.00 | 0.00 | 50 | 1019.2 |
| 20260502162010 | 6 | 257 | 8.0 | 17.7 | 0.00 | 0.00 | 0.00 | 50 | 1019.2 |
| 20260502161518 | 6 | 304 | 8.0 | 17.7 | 0.00 | 0.00 | 0.00 | 50 | 1019.3 |
| 20260502161012 | 6 | 282 | 8.0 | 17.7 | 0.00 | 0.00 | 0.00 | 50 | 1019.4 |
| 20260502160506 | 6 | 249 | 1.6 | 22.5 | 0.00 | 0.00 | 0.00 | 52 | 1019.3 |
| 20260502152010 | 5 | 331 | 9.7 | 16.1 | 0.00 | 0.00 | 0.00 | 56 | 1019.3 |
| 20260502151529 | 6 | 331 | 8.0 | 20.9 | 0.00 | 0.00 | 0.00 | 54 | 1019.2 |
| 20260502151011 | 6 | 360 | 3.2 | 20.9 | 0.00 | 0.00 | 0.00 | 53 | 1019.2 |
| 20260502150510 | 6 | 315 | 8.0 | 22.5 | 0.00 | 0.00 | 0.00 | 58 | 1019.2 |
| 20260502130509 | 3 | 267 | 6.4 | 20.9 | 0.00 | 0.00 | 0.00 | 74 | 1019.2 |
| 20260502123504 | 2 | 348 | 4.8 | 14.5 | 0.00 | 0.00 | 0.00 | 77 | 1019.2 |
| 20260502123004 | 2 | 299 | 4.8 | 14.5 | 0.00 | 0.00 | 0.00 | 77 | 1019.2 |
| 20260502122504 | 2 | 346 | 3.2 | 14.5 | 0.00 | 0.00 | 0.00 | 78 | 1019.1 |
| 20260502122007 | 2 | 324 | 6.4 | 14.5 | 0.00 | 0.00 | 0.00 | 77 | 1019.1 |
| 20260502121504 | 1 | 341 | 1.6 | 14.5 | 0.00 | 0.00 | 0.00 | 79 | 1019.1 |
| 20260502121003 | 1 | 329 | 4.8 | 14.5 | 0.00 | 0.00 | 0.00 | 79 | 1018.9 |
| 20260502120505 | 1 | 308 | 4.8 | 9.7 | 0.00 | 0.00 | 0.00 | 80 | 1018.9 |
| 20260502115502 | 0 | 5 | 3.2 | 14.5 | 0.00 | 0.00 | 0.00 | 81 | 1018.7 |
| 20260502115008 | 0 | 297 | 3.2 | 12.9 | 0.00 | 0.00 | 0.00 | 82 | 1018.7 |
| 20260502114516 | 0 | 297 | 6.4 | 14.5 | 0.00 | 0.00 | 0.00 | 81 | 1018.7 |
| 20260502114007 | 0 | 319 | 6.4 | 14.5 | 0.00 | 0.00 | 0.00 | 82 | 1018.7 |
| 20260502113507 | 0 | 300 | 8.0 | 14.5 | 0.00 | 0.00 | 0.00 | 82 | 1018.6 |
| 20260502113004 | 0 | 315 | 6.4 | 11.3 | 0.00 | 0.00 | 0.00 | 83 | 1018.6 |
| 20260502112503 | 0 | 265 | 4.8 | 11.3 | 0.00 | 0.00 | 0.00 | 83 | 1018.6 |
| 20260502112003 | 0 | 304 | 3.2 | 11.3 | 0.00 | 0.00 | 0.00 | 83 | 1018.6 |
| 20260502111504 | 0 | 296 | 3.2 | 11.3 | 0.00 | 0.03 | 0.00 | 83 | 1018.4 |
| 20260502111004 | 0 | 306 | 4.8 | 11.3 | 0.00 | 0.03 | 0.00 | 84 | 1018.4 |
| 20260502110503 | 0 | 309 | 3.2 | 11.3 | 0.00 | 0.03 | 0.00 | 84 | 1018.4 |
| 20260502110013 | 0 | 281 | 3.2 | 8.0 | 0.00 | 0.03 | 0.00 | 84 | 1018.4 |
| 20260502105506 | 0 | 319 | 3.2 | 11.3 | 0.00 | 0.03 | 0.00 | 84 | 1018.4 |
| 20260502105006 | -1 | 322 | 4.8 | 11.3 | 0.00 | 0.03 | 0.00 | 84 | 1018.4 |
| 20260502104515 | -1 | 293 | 3.2 | 14.5 | 0.00 | 0.03 | 0.00 | 84 | 1018.3 |
| 20260502104006 | -1 | 288 | 3.2 | 14.5 | 0.00 | 0.03 | 0.00 | 84 | 1018.4 |
| 20260502103505 | -1 | 284 | 6.4 | 14.5 | 0.00 | 0.03 | 0.00 | 84 | 1018.3 |
| 20260502103022 | -1 | 284 | 1.6 | 6.4 | 0.00 | 0.03 | 0.00 | 84 | 1018.3 |
| 20260502102509 | -1 | 314 | 1.6 | 6.4 | 0.00 | 0.03 | 0.00 | 84 | 1018.2 |
| 20260502102012 | -1 | 315 | 3.2 | 6.4 | 0.00 | 0.03 | 0.00 | 84 | 1018.2 |
| 20260502101503 | -1 | 301 | 1.6 | 4.8 | 0.00 | 0.03 | 0.00 | 84 | 1018.2 |
| 20260502101001 | -1 | 280 | 1.6 | 4.8 | 0.00 | 0.03 | 0.00 | 83 | 1018.2 |
| 20260502100502 | -1 | 295 | 0.0 | 4.8 | 0.00 | 0.03 | 0.00 | 83 | 1018.3 |
| 20260502091520 | 0 | 266 | 1.6 | 6.4 | 0.00 | 0.03 | 0.00 | 82 | 1018.1 |
| 20260502091008 | 0 | 277 | 3.2 | 6.4 | 0.00 | 0.03 | 0.00 | 82 | 1018.2 |
| 20260502090508 | 0 | 300 | 1.6 | 6.4 | 0.00 | 0.03 | 0.00 | 82 | 1018.0 |
| 20260502071516 | 0 | 271 | 3.2 | 12.9 | 0.00 | 0.03 | 0.00 | 78 | 1017.7 |
| 20260502071008 | 0 | 275 | 3.2 | 6.4 | 0.00 | 0.03 | 0.00 | 77 | 1017.8 |
| 20260502070508 | 0 | 277 | 3.2 | 11.3 | 0.00 | 0.03 | 0.00 | 77 | 1017.7 |
| 20260502070022 | 0 | 300 | 4.8 | 11.3 | 0.00 | 0.03 | 0.00 | 77 | 1017.8 |
| 20260502065510 | 0 | 290 | 4.8 | 9.7 | 0.00 | 0.05 | 0.00 | 77 | 1017.8 |
| 20260502065011 | 0 | 269 | 3.2 | 12.9 | 0.00 | 0.08 | 0.00 | 77 | 1017.8 |
| 20260502064531 | 0 | 282 | 4.8 | 12.9 | 0.00 | 0.08 | 0.00 | 76 | 1017.8 |
| 20260502064008 | 0 | 293 | 3.2 | 11.3 | 0.00 | 0.10 | 0.00 | 77 | 1017.8 |
| 20260502063506 | 0 | 298 | 6.4 | 11.3 | 0.00 | 0.10 | 0.00 | 77 | 1017.8 |
| 20260502063029 | 0 | 284 | 4.8 | 9.7 | 0.00 | 0.13 | 0.00 | 77 | 1017.9 |
| 20260502062504 | 0 | 267 | 4.8 | 9.7 | 0.00 | 0.13 | 0.00 | 77 | 1018.0 |
| 20260502062003 | 0 | 289 | 3.2 | 6.4 | 0.00 | 0.13 | 0.00 | 77 | 1018.0 |
| 20260502061511 | 0 | 285 | 3.2 | 6.4 | 0.00 | 0.13 | 0.00 | 77 | 1018.0 |
| 20260502061004 | 0 | 279 | 3.2 | 9.7 | 0.00 | 0.15 | 0.00 | 77 | 1018.1 |
| 20260502060504 | 0 | 286 | 1.6 | 9.7 | 0.00 | 0.18 | 0.00 | 77 | 1018.1 |
| 20260502060016 | 0 | 283 | 1.6 | 6.4 | 0.00 | 0.20 | 0.00 | 77 | 1018.1 |
| 20260502055505 | 0 | 274 | 3.2 | 6.4 | 0.00 | 0.23 | 0.00 | 76 | 1018.1 |
| 20260502055008 | 0 | 288 | 3.2 | 6.4 | 0.00 | 0.25 | 0.00 | 76 | 1018.1 |
| 20260502054524 | 0 | 296 | 3.2 | 6.4 | 0.00 | 0.28 | 0.00 | 76 | 1018.2 |
| 20260502054007 | 0 | 279 | 0.0 | 4.8 | 0.00 | 0.30 | 0.00 | 76 | 1018.3 |
| 20260502053507 | 0 | 263 | 0.0 | 6.4 | 0.00 | 0.33 | 0.00 | 75 | 1018.2 |
| 20260502053028 | 0 | 263 | 1.6 | 6.4 | 0.00 | 0.38 | 0.00 | 75 | 1018.2 |
| 20260502052510 | 0 | 283 | 1.6 | 6.4 | 0.00 | 0.38 | 0.00 | 75 | 1018.2 |
| 20260502052009 | 0 | 271 | 1.6 | 6.4 | 0.00 | 0.41 | 0.00 | 74 | 1018.3 |
| 20260502051533 | 0 | 285 | 3.2 | 6.4 | 0.00 | 0.41 | 0.00 | 74 | 1018.3 |
| 20260502051003 | 0 | 270 | 3.2 | 6.4 | 0.00 | 0.43 | 0.00 | 74 | 1018.3 |
| 20260502050507 | 0 | 262 | 1.6 | 6.4 | 0.00 | 0.43 | 0.00 | 74 | 1018.2 |